Year,Month,Day,Hour,Minute,Value (Times are PST for windgust in km/hr)
2015,08,28,00,00,6.40
2015,08,28,00,01,11.30
2015,08,28,00,02,9.60
2015,08,28,00,03,4.80
2015,08,28,00,04,6.40
2015,08,28,00,05,4.80
2015,08,28,00,06,3.20
2015,08,28,00,07,4.80
2015,08,28,00,08,6.40
2015,08,28,00,09,9.60
2015,08,28,00,10,16.10
2015,08,28,00,11,12.90
2015,08,28,00,12,8.10
2015,08,28,00,13,8.10
2015,08,28,00,14,17.70
2015,08,28,00,15,20.90
2015,08,28,00,16,11.30
2015,08,28,00,17,9.60
2015,08,28,00,18,24.20
2015,08,28,00,19,24.20
2015,08,28,00,20,19.30
2015,08,28,00,21,11.30
2015,08,28,00,22,12.90
2015,08,28,00,23,19.30
2015,08,28,00,24,20.90
2015,08,28,00,25,24.20
2015,08,28,00,26,20.90
2015,08,28,00,27,19.30
2015,08,28,00,28,20.90
2015,08,28,00,29,20.90
2015,08,28,00,30,16.10
2015,08,28,00,31,25.70
2015,08,28,00,32,20.90
2015,08,28,00,33,14.50
2015,08,28,00,34,16.10
2015,08,28,00,35,12.90
2015,08,28,00,36,17.70
2015,08,28,00,37,12.90
2015,08,28,00,38,12.90
2015,08,28,00,39,11.30
2015,08,28,00,40,24.20
2015,08,28,00,41,14.50
2015,08,28,00,42,22.50
2015,08,28,00,43,19.30
2015,08,28,00,44,16.10
2015,08,28,00,45,12.90
2015,08,28,00,46,16.10
2015,08,28,00,47,19.30
2015,08,28,00,48,19.30
2015,08,28,00,49,16.10
2015,08,28,00,50,14.50
2015,08,28,00,51,14.50
2015,08,28,00,52,11.30
2015,08,28,00,53,8.10
2015,08,28,00,54,6.40
2015,08,28,00,55,3.20
2015,08,28,00,56,4.80
2015,08,28,00,57,3.20
2015,08,28,00,58,3.20
2015,08,28,00,59,4.80
2015,08,28,01,00,3.20
2015,08,28,01,02,1.60
2015,08,28,01,04,3.20
2015,08,28,01,05,1.60
2015,08,28,01,06,1.60
2015,08,28,01,07,1.60
2015,08,28,01,08,4.80
2015,08,28,01,09,8.10
2015,08,28,01,10,8.10
2015,08,28,01,11,6.40
2015,08,28,01,12,14.50
2015,08,28,01,13,16.10
2015,08,28,01,14,11.30
2015,08,28,01,15,6.40
2015,08,28,01,16,11.30
2015,08,28,01,17,8.10
2015,08,28,01,18,14.50
2015,08,28,01,19,9.60
2015,08,28,01,20,3.20
2015,08,28,01,21,4.80
2015,08,28,01,22,3.20
2015,08,28,01,23,4.80
2015,08,28,01,24,4.80
2015,08,28,01,25,3.20
2015,08,28,01,26,4.80
2015,08,28,01,27,4.80
2015,08,28,01,28,3.20
2015,08,28,01,29,4.80
2015,08,28,01,30,3.20
2015,08,28,01,31,3.20
2015,08,28,01,32,3.20
2015,08,28,01,33,3.20
2015,08,28,01,34,3.20
2015,08,28,01,35,3.20
2015,08,28,01,36,3.20
2015,08,28,01,37,3.20
2015,08,28,01,38,1.60
2015,08,28,01,39,8.10
2015,08,28,01,40,6.40
2015,08,28,01,41,6.40
2015,08,28,01,42,6.40
2015,08,28,01,43,6.40
2015,08,28,01,44,6.40
2015,08,28,01,45,8.10
2015,08,28,01,46,4.80
2015,08,28,01,47,3.20
2015,08,28,01,48,6.40
2015,08,28,01,49,3.20
2015,08,28,01,50,1.60
2015,08,28,01,51,1.60
2015,08,28,01,52,1.60
2015,08,28,01,53,1.60
2015,08,28,01,54,3.20
2015,08,28,01,55,3.20
2015,08,28,01,56,3.20
2015,08,28,01,57,3.20
2015,08,28,01,58,3.20
2015,08,28,01,59,4.80
2015,08,28,02,00,4.80
2015,08,28,02,01,4.80
2015,08,28,02,02,4.80
2015,08,28,02,03,4.80
2015,08,28,02,04,4.80
2015,08,28,02,05,3.20
2015,08,28,02,06,3.20
2015,08,28,02,07,3.20
2015,08,28,02,08,3.20
2015,08,28,02,09,4.80
2015,08,28,02,10,3.20
2015,08,28,02,11,3.20
2015,08,28,02,12,4.80
2015,08,28,02,13,4.80
2015,08,28,02,14,4.80
2015,08,28,02,15,3.20
2015,08,28,02,16,1.60
2015,08,28,02,17,3.20
2015,08,28,02,18,3.20
2015,08,28,02,19,3.20
2015,08,28,02,20,3.20
2015,08,28,02,21,3.20
2015,08,28,02,22,3.20
2015,08,28,02,23,4.80
2015,08,28,02,24,4.80
2015,08,28,02,25,4.80
2015,08,28,02,26,3.20
2015,08,28,02,27,3.20
2015,08,28,02,28,3.20
2015,08,28,02,29,3.20
2015,08,28,02,30,3.20
2015,08,28,02,31,3.20
2015,08,28,02,32,4.80
2015,08,28,02,33,4.80
2015,08,28,02,34,4.80
2015,08,28,02,35,3.20
2015,08,28,02,36,3.20
2015,08,28,02,37,1.60
2015,08,28,02,38,1.60
2015,08,28,02,40,1.60
2015,08,28,02,41,1.60
2015,08,28,02,43,1.60
2015,08,28,02,47,4.80
2015,08,28,02,48,3.20
2015,08,28,02,49,6.40
2015,08,28,02,50,4.80
2015,08,28,02,51,3.20
2015,08,28,02,52,1.60
2015,08,28,02,53,4.80
2015,08,28,02,54,4.80
2015,08,28,02,55,3.20
2015,08,28,02,56,3.20
2015,08,28,02,57,4.80
2015,08,28,02,58,4.80
2015,08,28,02,59,4.80
2015,08,28,03,00,1.60
2015,08,28,03,01,1.60
2015,08,28,03,02,1.60
2015,08,28,03,03,3.20
2015,08,28,03,04,4.80
2015,08,28,03,05,6.40
2015,08,28,03,06,6.40
2015,08,28,03,07,6.40
2015,08,28,03,08,8.10
2015,08,28,03,09,9.60
2015,08,28,03,10,11.30
2015,08,28,03,11,4.80
2015,08,28,03,12,6.40
2015,08,28,03,13,6.40
2015,08,28,03,14,3.20
2015,08,28,03,15,3.20
2015,08,28,03,16,1.60
2015,08,28,03,17,1.60
2015,08,28,03,18,1.60
2015,08,28,03,19,3.20
2015,08,28,03,20,3.20
2015,08,28,03,21,3.20
2015,08,28,03,22,1.60
2015,08,28,03,23,1.60
2015,08,28,03,24,3.20
2015,08,28,03,25,1.60
2015,08,28,03,26,3.20
2015,08,28,03,27,1.60
2015,08,28,03,28,1.60
2015,08,28,03,29,1.60
2015,08,28,03,30,3.20
2015,08,28,03,31,3.20
2015,08,28,03,32,1.60
2015,08,28,03,33,1.60
2015,08,28,03,42,1.60
2015,08,28,03,43,3.20
2015,08,28,03,44,3.20
2015,08,28,03,45,3.20
2015,08,28,03,46,3.20
2015,08,28,03,47,1.60
2015,08,28,03,48,1.60
2015,08,28,03,49,3.20
2015,08,28,03,50,3.20
2015,08,28,03,51,4.80
2015,08,28,03,52,3.20
2015,08,28,03,55,3.20
2015,08,28,03,56,3.20
2015,08,28,03,57,1.60
2015,08,28,03,58,3.20
2015,08,28,04,00,1.60
2015,08,28,04,05,1.60
2015,08,28,04,07,3.20
2015,08,28,04,08,3.20
2015,08,28,04,09,3.20
2015,08,28,04,16,1.60
2015,08,28,04,17,1.60
2015,08,28,04,18,1.60
2015,08,28,04,19,1.60
2015,08,28,04,20,1.60
2015,08,28,04,21,1.60
2015,08,28,04,24,1.60
2015,08,28,04,25,1.60
2015,08,28,04,26,3.20
2015,08,28,04,27,3.20
2015,08,28,04,28,1.60
2015,08,28,04,29,1.60
2015,08,28,04,30,1.60
2015,08,28,04,33,1.60
2015,08,28,04,34,3.20
2015,08,28,04,35,3.20
2015,08,28,04,36,3.20
2015,08,28,04,37,3.20
2015,08,28,04,49,3.20
2015,08,28,04,50,3.20
2015,08,28,04,51,3.20
2015,08,28,04,52,3.20
2015,08,28,04,53,3.20
2015,08,28,04,54,1.60
2015,08,28,04,55,1.60
2015,08,28,05,17,3.20
2015,08,28,05,18,3.20
2015,08,28,05,19,3.20
2015,08,28,05,20,3.20
2015,08,28,05,21,3.20
2015,08,28,05,22,1.60
2015,08,28,05,27,4.80
2015,08,28,05,28,4.80
2015,08,28,05,29,3.20
2015,08,28,05,30,1.60
2015,08,28,05,33,3.20
2015,08,28,05,34,3.20
2015,08,28,05,35,3.20
2015,08,28,05,36,3.20
2015,08,28,05,37,1.60
2015,08,28,05,38,1.60
2015,08,28,05,39,1.60
2015,08,28,05,40,1.60
2015,08,28,05,41,1.60
2015,08,28,05,42,3.20
2015,08,28,05,43,4.80
2015,08,28,05,44,4.80
2015,08,28,05,45,1.60
2015,08,28,05,46,3.20
2015,08,28,05,47,4.80
2015,08,28,05,48,3.20
2015,08,28,05,49,3.20
2015,08,28,05,50,3.20
2015,08,28,05,51,1.60
2015,08,28,05,52,1.60
2015,08,28,05,53,3.20
2015,08,28,05,54,3.20
2015,08,28,05,56,1.60
2015,08,28,05,57,3.20
2015,08,28,05,58,3.20
2015,08,28,05,59,4.80
2015,08,28,06,00,4.80
2015,08,28,06,01,3.20
2015,08,28,06,02,4.80
2015,08,28,06,03,3.20
2015,08,28,06,04,3.20
2015,08,28,06,05,3.20
2015,08,28,06,06,1.60
2015,08,28,06,07,1.60
2015,08,28,06,08,1.60
2015,08,28,06,09,3.20
2015,08,28,06,10,3.20
2015,08,28,06,11,3.20
2015,08,28,06,12,1.60
2015,08,28,06,13,4.80
2015,08,28,06,14,4.80
2015,08,28,06,15,4.80
2015,08,28,06,16,6.40
2015,08,28,06,17,9.60
2015,08,28,06,18,11.30
2015,08,28,06,19,11.30
2015,08,28,06,20,12.90
2015,08,28,06,21,4.80
2015,08,28,06,22,6.40
2015,08,28,06,23,6.40
2015,08,28,06,24,9.60
2015,08,28,06,25,8.10
2015,08,28,06,26,8.10
2015,08,28,06,27,3.20
2015,08,28,06,28,3.20
2015,08,28,06,29,11.30
2015,08,28,06,30,6.40
2015,08,28,06,31,9.60
2015,08,28,06,32,4.80
2015,08,28,06,33,8.10
2015,08,28,06,34,8.10
2015,08,28,06,35,8.10
2015,08,28,06,36,6.40
2015,08,28,06,37,19.30
2015,08,28,06,38,16.10
2015,08,28,06,39,12.90
2015,08,28,06,40,12.90
2015,08,28,06,41,14.50
2015,08,28,06,42,14.50
2015,08,28,06,43,11.30
2015,08,28,06,44,11.30
2015,08,28,06,45,17.70
2015,08,28,06,46,14.50
2015,08,28,06,47,24.20
2015,08,28,06,48,14.50
2015,08,28,06,49,8.10
2015,08,28,06,50,12.90
2015,08,28,06,51,20.90
2015,08,28,06,52,19.30
2015,08,28,06,53,11.30
2015,08,28,06,54,14.50
2015,08,28,06,55,8.10
2015,08,28,06,56,19.30
2015,08,28,06,57,19.30
2015,08,28,06,58,20.90
2015,08,28,06,59,12.90
2015,08,28,07,00,17.70
2015,08,28,07,01,17.70
2015,08,28,07,02,12.90
2015,08,28,07,03,14.50
2015,08,28,07,04,14.50
2015,08,28,07,05,16.10
2015,08,28,07,06,16.10
2015,08,28,07,07,22.50
2015,08,28,07,08,19.30
2015,08,28,07,09,19.30
2015,08,28,07,10,12.90
2015,08,28,07,11,9.60
2015,08,28,07,12,16.10
2015,08,28,07,13,12.90
2015,08,28,07,14,11.30
2015,08,28,07,15,17.70
2015,08,28,07,16,14.50
2015,08,28,07,17,14.50
2015,08,28,07,18,11.30
2015,08,28,07,19,12.90
2015,08,28,07,20,17.70
2015,08,28,07,21,12.90
2015,08,28,07,22,16.10
2015,08,28,07,23,12.90
2015,08,28,07,24,24.20
2015,08,28,07,25,19.30
2015,08,28,07,26,12.90
2015,08,28,07,27,12.90
2015,08,28,07,28,14.50
2015,08,28,07,29,17.70
2015,08,28,07,30,19.30
2015,08,28,07,31,25.70
2015,08,28,07,32,19.30
2015,08,28,07,33,12.90
2015,08,28,07,34,22.50
2015,08,28,07,35,19.30
2015,08,28,07,36,19.30
2015,08,28,07,37,16.10
2015,08,28,07,38,14.50
2015,08,28,07,39,16.10
2015,08,28,07,40,17.70
2015,08,28,07,41,11.30
2015,08,28,07,42,20.90
2015,08,28,07,43,16.10
2015,08,28,07,44,17.70
2015,08,28,07,45,17.70
2015,08,28,07,46,27.40
2015,08,28,07,47,24.20
2015,08,28,07,48,14.50
2015,08,28,07,49,20.90
2015,08,28,07,50,16.10
2015,08,28,07,51,19.30
2015,08,28,07,52,17.70
2015,08,28,07,53,22.50
2015,08,28,07,54,12.90
2015,08,28,07,55,25.70
2015,08,28,07,56,19.30
2015,08,28,07,57,17.70
2015,08,28,07,58,12.90
2015,08,28,07,59,11.30
2015,08,28,08,00,16.10
2015,08,28,08,01,17.70
2015,08,28,08,02,14.50
2015,08,28,08,03,16.10
2015,08,28,08,04,17.70
2015,08,28,08,05,20.90
2015,08,28,08,06,11.30
2015,08,28,08,07,12.90
2015,08,28,08,08,16.10
2015,08,28,08,09,16.10
2015,08,28,08,10,12.90
2015,08,28,08,11,17.70
2015,08,28,08,12,16.10
2015,08,28,08,13,19.30
2015,08,28,08,14,12.90
2015,08,28,08,15,12.90
2015,08,28,08,16,12.90
2015,08,28,08,17,9.60
2015,08,28,08,18,20.90
2015,08,28,08,19,17.70
2015,08,28,08,20,14.50
2015,08,28,08,21,16.10
2015,08,28,08,22,29.00
2015,08,28,08,23,12.90
2015,08,28,08,24,12.90
2015,08,28,08,25,17.70
2015,08,28,08,26,12.90
2015,08,28,08,27,8.10
2015,08,28,08,28,12.90
2015,08,28,08,29,12.90
2015,08,28,08,30,12.90
2015,08,28,08,31,16.10
2015,08,28,08,32,8.10
2015,08,28,08,33,14.50
2015,08,28,08,34,12.90
2015,08,28,08,35,11.30
2015,08,28,08,36,16.10
2015,08,28,08,37,11.30
2015,08,28,08,38,4.80
2015,08,28,08,39,8.10
2015,08,28,08,40,11.30
2015,08,28,08,41,16.10
2015,08,28,08,42,19.30
2015,08,28,08,43,9.60
2015,08,28,08,44,14.50
2015,08,28,08,45,17.70
2015,08,28,08,46,14.50
2015,08,28,08,47,16.10
2015,08,28,08,48,14.50
2015,08,28,08,49,11.30
2015,08,28,08,50,16.10
2015,08,28,08,51,17.70
2015,08,28,08,52,14.50
2015,08,28,08,53,12.90
2015,08,28,08,54,16.10
2015,08,28,08,55,17.70
2015,08,28,08,56,17.70
2015,08,28,08,57,17.70
2015,08,28,08,58,20.90
2015,08,28,08,59,24.20
2015,08,28,09,00,14.50
2015,08,28,09,01,19.30
2015,08,28,09,02,22.50
2015,08,28,09,03,20.90
2015,08,28,09,04,22.50
2015,08,28,09,05,22.50
2015,08,28,09,06,20.90
2015,08,28,09,07,19.30
2015,08,28,09,08,9.60
2015,08,28,09,09,14.50
2015,08,28,09,10,19.30
2015,08,28,09,11,32.20
2015,08,28,09,12,12.90
2015,08,28,09,13,16.10
2015,08,28,09,14,12.90
2015,08,28,09,15,19.30
2015,08,28,09,16,24.20
2015,08,28,09,17,14.50
2015,08,28,09,18,19.30
2015,08,28,09,19,17.70
2015,08,28,09,20,14.50
2015,08,28,09,21,11.30
2015,08,28,09,22,17.70
2015,08,28,09,23,16.10
2015,08,28,09,24,16.10
2015,08,28,09,25,19.30
2015,08,28,09,26,20.90
2015,08,28,09,27,17.70
2015,08,28,09,28,12.90
2015,08,28,09,29,11.30
2015,08,28,09,30,17.70
2015,08,28,09,31,16.10
2015,08,28,09,32,24.20
2015,08,28,09,33,17.70
2015,08,28,09,34,11.30
2015,08,28,09,35,12.90
2015,08,28,09,36,14.50
2015,08,28,09,37,12.90
2015,08,28,09,38,19.30
2015,08,28,09,39,17.70
2015,08,28,09,40,16.10
2015,08,28,09,41,11.30
2015,08,28,09,42,16.10
2015,08,28,09,43,14.50
2015,08,28,09,44,12.90
2015,08,28,09,45,17.70
2015,08,28,09,46,19.30
2015,08,28,09,47,17.70
2015,08,28,09,48,20.90
2015,08,28,09,49,14.50
2015,08,28,09,50,12.90
2015,08,28,09,51,11.30
2015,08,28,09,52,27.40
2015,08,28,09,53,24.20
2015,08,28,09,54,14.50
2015,08,28,09,55,27.40
2015,08,28,09,56,19.30
2015,08,28,09,57,14.50
2015,08,28,09,58,17.70
2015,08,28,09,59,17.70
2015,08,28,10,00,20.90
2015,08,28,10,01,27.40
2015,08,28,10,02,17.70
2015,08,28,10,03,17.70
2015,08,28,10,04,16.10
2015,08,28,10,05,19.30
2015,08,28,10,06,16.10
2015,08,28,10,07,22.50
2015,08,28,10,08,16.10
2015,08,28,10,09,22.50
2015,08,28,10,10,17.70
2015,08,28,10,11,24.20
2015,08,28,10,12,16.10
2015,08,28,10,13,30.60
2015,08,28,10,14,19.30
2015,08,28,10,15,24.20
2015,08,28,10,16,22.50
2015,08,28,10,17,19.30
2015,08,28,10,18,16.10
2015,08,28,10,19,20.90
2015,08,28,10,20,16.10
2015,08,28,10,21,22.50
2015,08,28,10,22,16.10
2015,08,28,10,23,19.30
2015,08,28,10,24,19.30
2015,08,28,10,25,19.30
2015,08,28,10,26,20.90
2015,08,28,10,27,17.70
2015,08,28,10,28,20.90
2015,08,28,10,29,16.10
2015,08,28,10,30,22.50
2015,08,28,10,31,12.90
2015,08,28,10,32,16.10
2015,08,28,10,33,20.90
2015,08,28,10,34,16.10
2015,08,28,10,35,11.30
2015,08,28,10,36,6.40
2015,08,28,10,37,14.50
2015,08,28,10,38,14.50
2015,08,28,10,39,12.90
2015,08,28,10,40,11.30
2015,08,28,10,41,12.90
2015,08,28,10,42,17.70
2015,08,28,10,43,17.70
2015,08,28,10,44,19.30
2015,08,28,10,45,9.60
2015,08,28,10,46,11.30
2015,08,28,10,47,9.60
2015,08,28,10,48,12.90
2015,08,28,10,49,6.40
2015,08,28,10,50,12.90
2015,08,28,10,51,11.30
2015,08,28,10,52,11.30
2015,08,28,10,53,16.10
2015,08,28,10,54,17.70
2015,08,28,10,55,22.50
2015,08,28,10,56,14.50
2015,08,28,10,57,8.10
2015,08,28,10,58,16.10
2015,08,28,10,59,19.30
2015,08,28,11,00,17.70
2015,08,28,11,01,16.10
2015,08,28,11,02,24.20
2015,08,28,11,03,14.50
2015,08,28,11,04,11.30
2015,08,28,11,05,9.60
2015,08,28,11,06,16.10
2015,08,28,11,07,6.40
2015,08,28,11,08,17.70
2015,08,28,11,09,20.90
2015,08,28,11,10,19.30
2015,08,28,11,11,14.50
2015,08,28,11,12,17.70
2015,08,28,11,13,19.30
2015,08,28,11,14,16.10
2015,08,28,11,15,14.50
2015,08,28,11,16,27.40
2015,08,28,11,17,14.50
2015,08,28,11,18,16.10
2015,08,28,11,19,20.90
2015,08,28,11,20,22.50
2015,08,28,11,21,11.30
2015,08,28,11,22,9.60
2015,08,28,11,23,12.90
2015,08,28,11,24,16.10
2015,08,28,11,25,6.40
2015,08,28,11,26,8.10
2015,08,28,11,27,12.90
2015,08,28,11,28,17.70
2015,08,28,11,29,11.30
2015,08,28,11,30,16.10
2015,08,28,11,31,14.50
2015,08,28,11,32,14.50
2015,08,28,11,33,9.60
2015,08,28,11,34,19.30
2015,08,28,11,35,14.50
2015,08,28,11,36,14.50
2015,08,28,11,37,12.90
2015,08,28,11,38,14.50
2015,08,28,11,39,17.70
2015,08,28,11,40,11.30
2015,08,28,11,41,22.50
2015,08,28,11,42,14.50
2015,08,28,11,43,14.50
2015,08,28,11,44,17.70
2015,08,28,11,45,16.10
2015,08,28,11,46,16.10
2015,08,28,11,47,16.10
2015,08,28,11,48,19.30
2015,08,28,11,49,17.70
2015,08,28,11,50,14.50
2015,08,28,11,51,17.70
2015,08,28,11,52,11.30
2015,08,28,11,53,8.10
2015,08,28,11,54,12.90
2015,08,28,11,55,16.10
2015,08,28,11,56,9.60
2015,08,28,11,57,9.60
2015,08,28,11,58,9.60
2015,08,28,11,59,8.10
2015,08,28,12,00,16.10
2015,08,28,12,01,9.60
2015,08,28,12,02,12.90
2015,08,28,12,03,12.90
2015,08,28,12,04,12.90
2015,08,28,12,05,14.50
2015,08,28,12,06,16.10
2015,08,28,12,07,16.10
2015,08,28,12,08,19.30
2015,08,28,12,09,17.70
2015,08,28,12,10,24.20
2015,08,28,12,11,16.10
2015,08,28,12,12,22.50
2015,08,28,12,13,20.90
2015,08,28,12,14,20.90
2015,08,28,12,15,17.70
2015,08,28,12,16,24.20
2015,08,28,12,17,25.70
2015,08,28,12,18,27.40
2015,08,28,12,19,14.50
2015,08,28,12,20,14.50
2015,08,28,12,21,14.50
2015,08,28,12,22,17.70
2015,08,28,12,23,17.70
2015,08,28,12,24,14.50
2015,08,28,12,25,16.10
2015,08,28,12,26,19.30
2015,08,28,12,27,17.70
2015,08,28,12,28,17.70
2015,08,28,12,29,17.70
2015,08,28,12,30,19.30
2015,08,28,12,31,20.90
2015,08,28,12,32,22.50
2015,08,28,12,33,12.90
2015,08,28,12,34,14.50
2015,08,28,12,35,12.90
2015,08,28,12,36,14.50
2015,08,28,12,37,22.50
2015,08,28,12,38,17.70
2015,08,28,12,39,20.90
2015,08,28,12,40,32.20
2015,08,28,12,41,29.00
2015,08,28,12,42,20.90
2015,08,28,12,43,16.10
2015,08,28,12,44,12.90
2015,08,28,12,45,19.30
2015,08,28,12,46,17.70
2015,08,28,12,47,11.30
2015,08,28,12,48,16.10
2015,08,28,12,49,19.30
2015,08,28,12,50,12.90
2015,08,28,12,51,17.70
2015,08,28,12,52,19.30
2015,08,28,12,53,16.10
2015,08,28,12,54,16.10
2015,08,28,12,55,16.10
2015,08,28,12,56,12.90
2015,08,28,12,57,17.70
2015,08,28,12,58,17.70
2015,08,28,12,59,14.50
2015,08,28,13,00,19.30
2015,08,28,13,01,17.70
2015,08,28,13,02,12.90
2015,08,28,13,03,22.50
2015,08,28,13,04,16.10
2015,08,28,13,05,14.50
2015,08,28,13,06,14.50
2015,08,28,13,07,14.50
2015,08,28,13,08,17.70
2015,08,28,13,09,17.70
2015,08,28,13,10,12.90
2015,08,28,13,11,12.90
2015,08,28,13,12,11.30
2015,08,28,13,13,14.50
2015,08,28,13,14,12.90
2015,08,28,13,15,11.30
2015,08,28,13,16,22.50
2015,08,28,13,17,17.70
2015,08,28,13,18,16.10
2015,08,28,13,19,12.90
2015,08,28,13,20,14.50
2015,08,28,13,21,12.90
2015,08,28,13,22,11.30
2015,08,28,13,23,14.50
2015,08,28,13,24,14.50
2015,08,28,13,25,24.20
2015,08,28,13,26,19.30
2015,08,28,13,27,12.90
2015,08,28,13,28,11.30
2015,08,28,13,29,14.50
2015,08,28,13,30,14.50
2015,08,28,13,31,19.30
2015,08,28,13,32,20.90
2015,08,28,13,33,20.90
2015,08,28,13,34,14.50
2015,08,28,13,35,17.70
2015,08,28,13,36,16.10
2015,08,28,13,37,11.30
2015,08,28,13,38,14.50
2015,08,28,13,39,20.90
2015,08,28,13,40,12.90
2015,08,28,13,41,16.10
2015,08,28,13,42,17.70
2015,08,28,13,43,19.30
2015,08,28,13,44,16.10
2015,08,28,13,45,20.90
2015,08,28,13,46,19.30
2015,08,28,13,47,17.70
2015,08,28,13,48,24.20
2015,08,28,13,49,16.10
2015,08,28,13,50,16.10
2015,08,28,13,51,16.10
2015,08,28,13,52,8.10
2015,08,28,13,53,14.50
2015,08,28,13,54,16.10
2015,08,28,13,55,9.60
2015,08,28,13,56,8.10
2015,08,28,13,57,8.10
2015,08,28,13,58,11.30
2015,08,28,13,59,14.50
2015,08,28,14,00,16.10
2015,08,28,14,01,25.70
2015,08,28,14,02,17.70
2015,08,28,14,03,12.90
2015,08,28,14,04,16.10
2015,08,28,14,05,12.90
2015,08,28,14,06,11.30
2015,08,28,14,07,14.50
2015,08,28,14,08,17.70
2015,08,28,14,09,12.90
2015,08,28,14,10,12.90
2015,08,28,14,11,11.30
2015,08,28,14,12,12.90
2015,08,28,14,13,14.50
2015,08,28,14,14,11.30
2015,08,28,14,15,8.10
2015,08,28,14,16,14.50
2015,08,28,14,17,17.70
2015,08,28,14,18,16.10
2015,08,28,14,19,11.30
2015,08,28,14,20,11.30
2015,08,28,14,21,16.10
2015,08,28,14,22,16.10
2015,08,28,14,23,11.30
2015,08,28,14,24,14.50
2015,08,28,14,25,9.60
2015,08,28,14,26,19.30
2015,08,28,14,27,14.50
2015,08,28,14,28,8.10
2015,08,28,14,29,16.10
2015,08,28,14,30,17.70
2015,08,28,14,31,17.70
2015,08,28,14,32,12.90
2015,08,28,14,33,14.50
2015,08,28,14,34,19.30
2015,08,28,14,35,12.90
2015,08,28,14,36,17.70
2015,08,28,14,37,16.10
2015,08,28,14,38,8.10
2015,08,28,14,39,17.70
2015,08,28,14,40,19.30
2015,08,28,14,41,14.50
2015,08,28,14,42,14.50
2015,08,28,14,43,12.90
2015,08,28,14,44,12.90
2015,08,28,14,45,12.90
2015,08,28,14,46,11.30
2015,08,28,14,47,8.10
2015,08,28,14,48,6.40
2015,08,28,14,49,9.60
2015,08,28,14,50,16.10
2015,08,28,14,51,14.50
2015,08,28,14,52,11.30
2015,08,28,14,53,6.40
2015,08,28,14,54,17.70
2015,08,28,14,55,16.10
2015,08,28,14,56,14.50
2015,08,28,14,57,11.30
2015,08,28,14,58,16.10
2015,08,28,14,59,22.50
2015,08,28,15,00,16.10
2015,08,28,15,01,12.90
2015,08,28,15,02,11.30
2015,08,28,15,03,6.40
2015,08,28,15,04,12.90
2015,08,28,15,05,9.60
2015,08,28,15,06,14.50
2015,08,28,15,07,22.50
2015,08,28,15,08,20.90
2015,08,28,15,09,17.70
2015,08,28,15,10,19.30
2015,08,28,15,11,16.10
2015,08,28,15,12,17.70
2015,08,28,15,13,14.50
2015,08,28,15,14,20.90
2015,08,28,15,15,20.90
2015,08,28,15,16,20.90
2015,08,28,15,17,16.10
2015,08,28,15,18,24.20
2015,08,28,15,19,14.50
2015,08,28,15,20,20.90
2015,08,28,15,21,20.90
2015,08,28,15,22,17.70
2015,08,28,15,23,16.10
2015,08,28,15,24,11.30
2015,08,28,15,25,20.90
2015,08,28,15,26,19.30
2015,08,28,15,27,22.50
2015,08,28,15,28,14.50
2015,08,28,15,29,19.30
2015,08,28,15,30,17.70
2015,08,28,15,31,19.30
2015,08,28,15,32,19.30
2015,08,28,15,33,14.50
2015,08,28,15,34,17.70
2015,08,28,15,35,12.90
2015,08,28,15,36,12.90
2015,08,28,15,37,17.70
2015,08,28,15,38,19.30
2015,08,28,15,39,17.70
2015,08,28,15,40,19.30
2015,08,28,15,41,16.10
2015,08,28,15,42,14.50
2015,08,28,15,43,19.30
2015,08,28,15,44,16.10
2015,08,28,15,45,12.90
2015,08,28,15,46,19.30
2015,08,28,15,47,16.10
2015,08,28,15,48,12.90
2015,08,28,15,49,14.50
2015,08,28,15,50,17.70
2015,08,28,15,51,20.90
2015,08,28,15,52,16.10
2015,08,28,15,53,12.90
2015,08,28,15,54,19.30
2015,08,28,15,55,17.70
2015,08,28,15,56,17.70
2015,08,28,15,57,17.70
2015,08,28,15,58,16.10
2015,08,28,15,59,12.90
2015,08,28,16,00,11.30
2015,08,28,16,01,19.30
2015,08,28,16,02,19.30
2015,08,28,16,03,20.90
2015,08,28,16,04,19.30
2015,08,28,16,05,11.30
2015,08,28,16,06,12.90
2015,08,28,16,07,17.70
2015,08,28,16,08,14.50
2015,08,28,16,09,12.90
2015,08,28,16,10,12.90
2015,08,28,16,11,12.90
2015,08,28,16,12,11.30
2015,08,28,16,13,12.90
2015,08,28,16,14,14.50
2015,08,28,16,15,9.60
2015,08,28,16,16,11.30
2015,08,28,16,17,8.10
2015,08,28,16,18,14.50
2015,08,28,16,19,12.90
2015,08,28,16,20,12.90
2015,08,28,16,21,16.10
2015,08,28,16,22,8.10
2015,08,28,16,23,17.70
2015,08,28,16,24,8.10
2015,08,28,16,25,6.40
2015,08,28,16,26,11.30
2015,08,28,16,27,14.50
2015,08,28,16,28,17.70
2015,08,28,16,29,12.90
2015,08,28,16,30,4.80
2015,08,28,16,31,14.50
2015,08,28,16,32,9.60
2015,08,28,16,33,12.90
2015,08,28,16,34,12.90
2015,08,28,16,35,19.30
2015,08,28,16,36,17.70
2015,08,28,16,37,9.60
2015,08,28,16,38,8.10
2015,08,28,16,39,9.60
2015,08,28,16,40,16.10
2015,08,28,16,41,8.10
2015,08,28,16,42,20.90
2015,08,28,16,43,14.50
2015,08,28,16,44,9.60
2015,08,28,16,45,12.90
2015,08,28,16,46,12.90
2015,08,28,16,47,11.30
2015,08,28,16,48,12.90
2015,08,28,16,49,16.10
2015,08,28,16,50,9.60
2015,08,28,16,51,11.30
2015,08,28,16,52,19.30
2015,08,28,16,53,12.90
2015,08,28,16,54,22.50
2015,08,28,16,55,27.40
2015,08,28,16,56,9.60
2015,08,28,16,57,8.10
2015,08,28,16,58,16.10
2015,08,28,16,59,14.50
2015,08,28,17,00,14.50
2015,08,28,17,01,14.50
2015,08,28,17,02,17.70
2015,08,28,17,03,17.70
2015,08,28,17,04,17.70
2015,08,28,17,05,19.30
2015,08,28,17,06,14.50
2015,08,28,17,07,9.60
2015,08,28,17,08,19.30
2015,08,28,17,09,16.10
2015,08,28,17,10,14.50
2015,08,28,17,11,16.10
2015,08,28,17,12,20.90
2015,08,28,17,13,14.50
2015,08,28,17,14,17.70
2015,08,28,17,15,12.90
2015,08,28,17,16,17.70
2015,08,28,17,17,17.70
2015,08,28,17,18,14.50
2015,08,28,17,19,17.70
2015,08,28,17,20,17.70
2015,08,28,17,21,12.90
2015,08,28,17,22,14.50
2015,08,28,17,23,11.30
2015,08,28,17,24,12.90
2015,08,28,17,25,14.50
2015,08,28,17,26,19.30
2015,08,28,17,27,19.30
2015,08,28,17,28,17.70
2015,08,28,17,29,17.70
2015,08,28,17,30,11.30
2015,08,28,17,31,17.70
2015,08,28,17,32,17.70
2015,08,28,17,33,16.10
2015,08,28,17,34,17.70
2015,08,28,17,35,14.50
2015,08,28,17,36,20.90
2015,08,28,17,37,20.90
2015,08,28,17,38,11.30
2015,08,28,17,39,20.90
2015,08,28,17,40,20.90
2015,08,28,17,41,14.50
2015,08,28,17,42,16.10
2015,08,28,17,43,25.70
2015,08,28,17,44,16.10
2015,08,28,17,45,12.90
2015,08,28,17,46,27.40
2015,08,28,17,47,20.90
2015,08,28,17,48,14.50
2015,08,28,17,49,12.90
2015,08,28,17,50,20.90
2015,08,28,17,51,14.50
2015,08,28,17,52,14.50
2015,08,28,17,53,12.90
2015,08,28,17,54,16.10
2015,08,28,17,55,12.90
2015,08,28,17,56,12.90
2015,08,28,17,57,22.50
2015,08,28,17,58,16.10
2015,08,28,17,59,16.10
2015,08,28,18,00,16.10
2015,08,28,18,01,16.10
2015,08,28,18,02,16.10
2015,08,28,18,03,14.50
2015,08,28,18,04,9.60
2015,08,28,18,05,14.50
2015,08,28,18,06,16.10
2015,08,28,18,07,12.90
2015,08,28,18,08,16.10
2015,08,28,18,09,22.50
2015,08,28,18,10,16.10
2015,08,28,18,11,16.10
2015,08,28,18,12,8.10
2015,08,28,18,13,16.10
2015,08,28,18,14,14.50
2015,08,28,18,15,16.10
2015,08,28,18,16,20.90
2015,08,28,18,17,16.10
2015,08,28,18,18,17.70
2015,08,28,18,19,16.10
2015,08,28,18,20,16.10
2015,08,28,18,21,14.50
2015,08,28,18,22,9.60
2015,08,28,18,23,22.50
2015,08,28,18,24,19.30
2015,08,28,18,25,12.90
2015,08,28,18,26,16.10
2015,08,28,18,27,11.30
2015,08,28,18,28,14.50
2015,08,28,18,29,11.30
2015,08,28,18,30,14.50
2015,08,28,18,31,14.50
2015,08,28,18,32,20.90
2015,08,28,18,33,14.50
2015,08,28,18,34,14.50
2015,08,28,18,35,20.90
2015,08,28,18,36,14.50
2015,08,28,18,37,14.50
2015,08,28,18,38,11.30
2015,08,28,18,39,11.30
2015,08,28,18,40,16.10
2015,08,28,18,41,11.30
2015,08,28,18,42,6.40
2015,08,28,18,43,14.50
2015,08,28,18,44,16.10
2015,08,28,18,45,14.50